Date String (YYYY-MM-DD hh:mm:ss) UTC,Instrument flags,absolute air pressure of the measurement (hPa),sample flow rate (lpm),inlet stack bypass flow (lpm),air temperature of the measurement (°C),ambient temperature measured by the external sensor (°C),aerosol sample conditioner tube jacket temperature (°C),OPC LED temperature (°C),internal box temperature (°C),relative humidity of the measurement (%),span deviation,mass concentration of particles derived from Lorenz-Mie calculation of OPC scattering (μg/m³),mass concentration of particles derived from Lorenz-Mie calculation of OPC scattering (μg/m³),mass concentration of particles derived from Lorenz-Mie calculation of OPC scattering (μg/m³)
DateTimeUTC,F1_M11,P_M11,Q1_M11,Q2_M11,T1_M11,T2_M11,T3_M11,T4_M11,T5_M11,U1_M11,ZSPAN_M11,X0_M11,X2_M11,X1_M11
2023-09-05 21:00:00,SystemResetWarning,0833.0,5.00,000.00,027.8,025.4,000.0,036.2,029.3,26.4,0000.0,0008.85,0002.80,0002.02
2023-09-05 21:01:00,SystemResetWarning,0833.2,4.99,000.00,027.8,025.8,000.0,036.2,029.4,26.0,0000.0,0008.89,0002.85,0002.01
2023-09-05 21:02:00,SystemResetWarning,0833.0,5.00,000.00,027.9,026.2,000.0,036.2,029.5,25.8,0000.0,0008.47,0002.86,0002.02
2023-09-05 21:03:00,SystemResetWarning,0832.9,5.00,000.00,027.9,026.5,000.0,036.2,029.6,25.9,0000.0,0007.57,0002.85,0002.01
2023-09-05 21:04:00,SystemResetWarning,0832.9,5.00,000.00,028.0,026.7,000.0,036.3,029.7,25.7,0000.0,0007.59,0002.87,0002.02
2023-09-05 21:05:00,SystemResetWarning,0833.0,5.00,000.00,028.0,026.9,000.0,036.3,029.8,25.6,0000.0,0008.03,0002.96,0002.03
2023-09-05 21:06:00,SystemResetWarning,0833.3,5.00,000.00,028.1,027.1,000.0,036.3,029.9,25.6,0000.0,0007.09,0002.93,0002.04
2023-09-05 21:07:00,SystemResetWarning,0833.2,5.00,000.00,028.2,027.3,000.0,036.3,029.9,25.7,0000.0,0006.70,0002.91,0002.04
2023-09-05 21:08:00,SystemResetWarning,0833.0,4.99,000.00,028.2,027.0,000.0,036.4,029.9,25.8,0000.0,0006.83,0002.98,0002.04
2023-09-05 21:09:00,SystemResetWarning,0833.1,4.98,000.00,028.1,025.3,000.0,036.3,029.4,25.8,0000.0,0007.40,0003.02,0002.04
2023-09-05 21:10:00,SystemResetWarning,0833.0,5.01,000.00,028.0,024.2,000.0,036.2,029.1,26.3,0000.0,0007.90,0003.09,0002.06
2023-09-05 21:11:00,SystemResetWarning,0833.1,5.01,000.00,027.9,024.3,000.0,036.2,029.1,26.4,0000.0,0008.06,0003.11,0002.06
2023-09-05 21:12:00,SystemResetWarning,0833.1,5.00,000.00,027.8,024.6,000.0,036.2,029.1,26.0,0000.0,0008.86,0003.14,0002.08
2023-09-05 21:13:00,SystemResetWarning,0833.2,5.00,000.00,027.8,025.0,000.0,036.2,029.2,25.9,0000.0,0009.39,0003.14,0002.09
2023-09-05 21:14:00,SystemResetWarning,0833.1,5.00,000.00,027.8,025.5,000.0,036.2,029.4,25.8,0000.0,0010.05,0003.16,0002.11
2023-09-05 21:15:00,SystemResetWarning,0833.2,5.00,000.00,027.9,025.9,000.0,036.2,029.5,25.9,0000.0,0010.48,0003.16,0002.11
2023-09-05 21:16:00,SystemResetWarning,0833.0,5.00,000.00,027.9,026.2,000.0,036.2,029.6,26.3,0000.0,0010.23,0003.14,0002.11
2023-09-05 21:17:00,SystemResetWarning,0833.1,5.00,000.00,028.0,026.5,000.0,036.3,029.7,25.9,0000.0,0010.51,0003.17,0002.11
2023-09-05 21:18:00,SystemResetWarning,0833.1,5.00,000.00,028.0,026.7,000.0,036.3,029.8,25.6,0000.0,0010.49,0003.15,0002.11
2023-09-05 21:19:00,SystemResetWarning,0833.2,5.00,000.00,028.1,027.0,000.0,036.3,029.8,25.7,0000.0,0010.48,0003.15,0002.11
2023-09-05 21:20:00,SystemResetWarning,0833.3,5.00,000.00,028.1,027.1,000.0,036.3,029.9,25.6,0000.0,0010.97,0003.14,0002.12
2023-09-05 21:21:00,SystemResetWarning,0833.0,5.00,000.00,028.2,027.3,000.0,036.4,030.0,25.9,0000.0,0011.14,0003.13,0002.12
2023-09-05 21:22:00,SystemResetWarning,0833.0,4.99,000.00,028.2,026.9,000.0,036.4,029.9,25.4,0000.0,0011.34,0003.14,0002.13
2023-09-05 21:23:00,SystemResetWarning,0833.1,4.99,000.00,028.1,025.2,000.0,036.3,029.3,25.7,0000.0,0011.18,0003.12,0002.12
2023-09-05 21:24:00,SystemResetWarning,0833.2,5.00,000.00,028.0,024.2,000.0,036.2,029.1,26.1,0000.0,0010.63,0003.11,0002.12
2023-09-05 21:25:00,SystemResetWarning,0833.1,5.00,000.00,027.9,024.3,000.0,036.2,029.1,26.2,0000.0,0010.09,0003.11,0002.12
2023-09-05 21:26:00,SystemResetWarning,0833.1,5.01,000.00,027.8,024.7,000.0,036.2,029.1,25.9,0000.0,0009.87,0003.09,0002.12
2023-09-05 21:27:00,SystemResetWarning,0833.1,5.00,000.00,027.8,025.1,000.0,036.2,029.3,25.6,0000.0,0010.63,0003.05,0002.10
2023-09-05 21:28:00,SystemResetWarning,0833.1,5.00,000.00,027.8,025.5,000.0,036.2,029.4,25.7,0000.0,0011.15,0003.00,0002.09
2023-09-05 21:29:00,SystemResetWarning,0833.1,5.01,000.00,027.9,025.9,000.0,036.2,029.5,25.5,0000.0,0011.62,0003.10,0002.10
2023-09-05 21:30:00,SystemResetWarning,0833.1,5.00,000.00,027.9,026.3,000.0,036.3,029.6,26.1,0000.0,0011.92,0003.09,0002.09
2023-09-05 21:31:00,SystemResetWarning,0833.1,4.99,000.00,028.0,026.6,000.0,036.3,029.7,25.9,0000.0,0012.65,0003.10,0002.10
2023-09-05 21:32:00,SystemResetWarning,0833.2,4.99,000.00,028.1,026.8,000.0,036.3,029.8,25.2,0000.0,0012.21,0003.11,0002.10
2023-09-05 21:33:00,SystemResetWarning,0833.3,5.00,000.00,028.1,027.0,000.0,036.3,029.9,25.2,0000.0,0012.05,0003.13,0002.15
2023-09-05 21:34:00,SystemResetWarning,0833.1,5.00,000.00,028.2,027.2,000.0,036.4,029.9,25.2,0000.0,0011.86,0003.22,0002.27
2023-09-05 21:35:00,SystemResetWarning,0833.2,5.00,000.00,028.2,027.4,000.0,036.4,030.0,25.4,0000.0,0011.95,0003.31,0002.39
2023-09-05 21:36:00,SystemResetWarning,0833.0,5.00,000.00,028.3,026.7,000.0,036.4,029.9,25.4,0000.0,0011.75,0003.36,0002.47
2023-09-05 21:37:00,SystemResetWarning,0833.1,5.00,000.00,028.1,025.0,000.0,036.3,029.3,25.2,0000.0,0011.92,0003.45,0002.58
2023-09-05 21:38:00,SystemResetWarning,0833.0,5.00,000.00,028.0,024.2,000.0,036.2,029.1,25.3,0000.0,0011.53,0003.54,0002.71
2023-09-05 21:39:00,SystemResetWarning,0833.2,5.01,000.00,027.9,024.3,000.0,036.2,029.0,25.5,0000.0,0011.60,0003.66,0002.84
2023-09-05 21:40:00,SystemResetWarning,0833.0,5.01,000.00,027.8,024.7,000.0,036.2,029.1,25.6,0000.0,0011.66,0003.73,0002.96
2023-09-05 21:41:00,SystemResetWarning,0833.0,5.00,000.00,027.9,025.2,000.0,036.2,029.3,25.7,0000.0,0012.18,0003.80,0003.07
2023-09-05 21:42:00,SystemResetWarning,0833.0,5.00,000.00,027.9,025.6,000.0,036.3,029.4,25.5,0000.0,0011.45,0003.86,0003.15
2023-09-05 21:43:00,SystemResetWarning,0833.0,5.00,000.00,027.9,026.0,000.0,036.3,029.6,25.5,0000.0,0011.40,0003.91,0003.22
2023-09-05 21:44:00,SystemResetWarning,0833.1,5.00,000.00,028.0,026.3,000.0,036.3,029.6,25.3,0000.0,0011.27,0003.96,0003.26
2023-09-05 21:45:00,SystemResetWarning,0833.2,5.00,000.00,028.0,026.6,000.0,036.3,029.7,25.4,0000.0,0011.50,0003.99,0003.26
2023-09-05 21:46:00,SystemResetWarning,0833.4,4.99,000.00,028.1,026.9,000.0,036.3,029.8,25.3,0000.0,0011.95,0003.98,0003.27
2023-09-05 21:47:00,SystemResetWarning,0833.1,4.99,000.00,028.1,027.1,000.0,036.4,029.9,25.5,0000.0,0012.63,0004.01,0003.29
2023-09-05 21:48:00,SystemResetWarning,0833.2,5.00,000.00,028.2,027.2,000.0,036.4,030.0,25.4,0000.0,0013.55,0003.99,0003.29
2023-09-05 21:49:00,SystemResetWarning,0833.0,5.00,000.00,028.2,026.2,000.0,036.4,029.7,25.4,0000.0,0013.05,0003.97,0003.30
2023-09-05 21:50:00,SystemResetWarning,0833.0,5.00,000.00,028.1,024.7,000.0,036.3,029.1,25.4,0000.0,0012.91,0003.95,0003.31
2023-09-05 21:51:00,SystemResetWarning,0833.2,5.00,000.00,027.9,024.1,000.0,036.2,029.0,25.3,0000.0,0012.63,0003.94,0003.32
2023-09-05 21:52:00,SystemResetWarning,0833.2,5.01,000.00,027.8,024.3,000.0,036.2,029.0,25.8,0000.0,0012.25,0003.96,0003.33
2023-09-05 21:53:00,SystemResetWarning,0833.0,5.01,000.00,027.8,024.7,000.0,036.2,029.1,26.2,0000.0,0011.89,0004.00,0003.33
2023-09-05 21:54:00,SystemResetWarning,0833.1,5.00,000.00,027.8,025.2,000.0,036.2,029.3,26.4,0000.0,0011.74,0004.02,0003.33
2023-09-05 21:55:00,SystemResetWarning,0833.0,5.00,000.00,027.8,025.6,000.0,036.2,029.4,26.3,0000.0,0012.21,0004.03,0003.33
2023-09-05 21:56:00,SystemResetWarning,0833.2,5.00,000.00,027.9,026.0,000.0,036.2,029.5,26.7,0000.0,0012.04,0004.05,0003.34
2023-09-05 21:57:00,SystemResetWarning,0833.1,5.00,000.00,027.9,026.3,000.0,036.2,029.6,26.5,0000.0,0011.49,0004.08,0003.34
2023-09-05 21:58:00,SystemResetWarning,0833.2,4.99,000.00,028.0,026.6,000.0,036.3,029.7,26.4,0000.0,0010.96,0004.06,0003.33
2023-09-05 21:59:00,SystemResetWarning,0833.1,4.99,000.00,028.0,026.8,000.0,036.3,029.8,26.7,0000.0,0010.50,0004.04,0003.34
